Flag for Switzerland Weather past 2 weeks in Bellinzona, Ticino, Switzerland

Now
56 °F

Refreshingly cool.


Feels Like: 54 °F
Forecast: 43 / 58 °F
Wind: 7 mph from East

Location: Locarno-Magadino

Current Time: Apr 1, 2015 at 1:51:51 AM

Latest Report: Apr 1, 2015 at 12:00 AM


Visibility: N/A

Pressure: 29.88 "Hg

Humidity: 41%

Dew point: 32 °F

Location of BellinzonaLocation

Historic Weather in Bellinzona — Graph

°F

Bellinzona temperature yesterday

Maximum temperature yesterday: 75 °F (at 5:00 PM)
Minimum temperature yesterday: 41 °F (at 7:00 AM)
Average temperature yesterday: 58 °F

Past Weeks' High & Low Weather Summary

 TemperatureHumidityPressure
High75 °F (Mar 31, 5:00 PM)99% (Mar 18, 6:00 AM)30.41 "Hg (Mar 18, 6:00 AM)
Low34 °F (Mar 18, 6:00 AM)17% (Mar 27, 4:00 PM)29.50 "Hg (Mar 25, 5:00 PM)
Average51 °F72%29.99 "Hg
* Reported Mar 16 11:00 PM — Midnight between Mar 31 and Apr 1, Bellinzona, Weather by CustomWeather, © 2015

Note: Actual official high and low records may vary slightly from our data, if they occured in-between our weather recording intervals... More about our weather records

Advertising

Bellinzona weather history for previous 24 hours

 ConditionsComfort  
Time TempWeatherWind HumidityBarometerVisibility
12:00 AM
Wed, Apr 1
56 °FRefreshingly cool.7 mph41%29.88 "HgN/A
11:00 PM
Tue, Mar 31
56 °FRefreshingly cool.3 mph47%29.85 "HgN/A
10:00 PM57 °FRefreshingly cool.12 mph51%29.82 "HgN/A
9:00 PM62 °FRefreshingly cool.5 mph36%29.76 "HgN/A
8:00 PM66 °FMild.14 mph28%29.71 "HgN/A
7:00 PM69 °FMild.16 mph24%29.66 "HgN/A
6:00 PM71 °FMild.10 mph24%29.64 "HgN/A
5:00 PM75 °FMild.15 mph20%29.61 "HgN/A
4:00 PM71 °FMild.2 mph36%29.59 "HgN/A
3:00 PM69 °FMild.5 mph37%29.62 "HgN/A
2:00 PM67 °FMild.3 mph46%29.67 "HgN/A
1:00 PM64 °FMild.1 mph42%29.72 "HgN/A
12:00 PM63 °FMild.3 mph49%29.75 "HgN/A
11:00 AM58 °FRefreshingly cool.3 mph55%29.80 "HgN/A
10:00 AM54 °FCool.6 mph64%29.83 "HgN/A
9:00 AM51 °FCool.3 mph76%29.85 "HgN/A
8:00 AM45 °FQuite cool.5 mph86%29.85 "HgN/A
7:00 AM41 °FQuite cool.2 mph89%29.85 "HgN/A
6:00 AM43 °FQuite cool.3 mph88%29.85 "HgN/A
4:00 AM46 °FCool.2 mph80%29.88 "HgN/A
3:00 AM51 °FCool.10 mph66%29.90 "HgN/A
2:00 AM52 °FCool.16 mph63%29.92 "HgN/A
1:00 AM52 °FCool.14 mph66%29.92 "HgN/A
Weather by CustomWeather, © 2015

See weather overviewHow to use our weather pages